Tracking 18957 objects as of 23-Jan-2018
HD Live streaming from Space Station
objects crossing your sky now

FENGYUN 1C DEB

Track FENGYUN 1C DEB now!
10-day predictions


NORAD ID: 41008
Int'l Code: 1999-025EXN
Perigee: 669.7 km
Apogee: 1,445.8 km
Inclination: 99.5 °
Period: 106.2 minutes
Semi major axis: 7428 km
RCS: Unknown
Launch date: May 10, 1999
Source: People's Republic of China (PRC)
Launch site: Taiyaun Space Center, China (TSC)

Note: This is SATELLITE DEBRIS
aabbcc
Your satellite tracking list
Your tracking list is empty




NASA's NSSDC Master Catalog

Two Line Element Set (TLE):
1 41008U 99025EXN 18021.90314845 +.00000070 +00000-0 +69863-4 0  9997
2 41008 099.4598 276.5470 0522338 328.5990 028.4911 13.55903962173547
Source of the keplerian elements: AFSPC